Вернуться в каталог

BREEZE-KM R/B

АктивенPO
NORAD 41580·ROCKET BODY·🇷🇺 Russia

Запущен Jun 4, 2016 с Plesetsk Cosmodrome

Loading…

Ближайшие Пролёты (ближайшие 24 часа)

TLE

СвежийSource: Space-Track

Эпоха: Sep 14, 2026, 08:48 UTC

1 41580U 16034B   26257.36711762  .00000022  00000-0  26116-4 0  9991
2 41580  99.1660 127.7795 0209099 292.5474  65.3696 14.25931444534690

Отслеживайте BREEZE-KM R/B в реальном времени с AllMySat

Download on the App Store